Location: Godiavel Galaoual
(15.2485°N, 12.6604°W)
Time: 02:11:37
(UTC+00:00)

N. Korean satellite - Pass Details

Date: 05 December 2021
Orbit: 447 x 491 km, 97.3° (Epoch: 22 January)

Event Time Altitude Azimuth Distance (km) Brightness Sun altitude
Rises 06:01:25 0° 4° (N) 2,437 10.0 -14.7°
Reaches altitude 10° 06:03:28 10° 359° (N) 1,567 8.9 -14.3°
Maximum altitude 06:06:44 51° 282° (WNW) 567 6.5 -13.5°
Drops below altitude 10° 06:10:01 10° 205° (SSW) 1,577 9.1 -12.8°
Sets 06:12:05 0° 200° (SSW) 2,454 10.2 -12.3°
